Time,TemperatureF,DewpointF,PressureIn,WindDirection,WindDirectionDegrees,WindSpeedMPH,WindSpeedGustMPH,Humidity,HourlyPrecipIn,Conditions,Clouds,dailyrainin,SolarRadiationWatts/m^2,SoftwareType,DateUTC
2013-02-23 00:00:00,51.5,50.7,30.07,ENE,67,0.9,2.3,97,0.19,RA,OVC,0.19,0.0,WeatherDisplay:10.37,2013-02-23 05:00:00,
2013-02-23 00:05:00,51.6,50.8,30.07,NW,323,0.9,2.3,97,0.01,RA,OVC,0.01,0.0,WeatherDisplay:10.37,2013-02-23 05:05:00,
2013-02-23 00:10:00,51.7,50.9,30.07,East,98,1.4,2.0,97,0.01,RA,OVC,0.01,0.0,WeatherDisplay:10.37,2013-02-23 05:10:00,
2013-02-23 00:15:00,51.9,51.1,30.07,East,84,1.3,2.3,97,0.01,,OVC,0.01,0.0,WeatherDisplay:10.37,2013-02-23 05:15:00,
2013-02-23 00:20:00,52.1,51.3,30.06,ENE,78,0.2,2.3,97,0.01,CLR,OVC,0.01,0.0,WeatherDisplay:10.37,2013-02-23 05:20:00,
2013-02-23 00:25:00,52.3,51.5,30.06,ENE,78,0.2,1.1,97,0.01,CLR,OVC,0.01,0.0,WeatherDisplay:10.37,2013-02-23 05:25:00,
2013-02-23 00:30:00,52.5,51.7,30.06,ENE,78,0.2,2.3,97,0.00,CLR,OVC,0.01,0.0,WeatherDisplay:10.37,2013-02-23 05:30:00,
2013-02-23 00:36:00,52.6,51.8,30.06,North,351,1.4,2.3,97,0.02,RA,OVC,0.03,0.0,WeatherDisplay:10.37,2013-02-23 05:36:00,
2013-02-23 00:41:00,52.5,51.7,30.06,NNW,330,1.1,4.6,97,0.02,RA,OVC,0.03,0.0,WeatherDisplay:10.37,2013-02-23 05:41:00,
2013-02-23 00:46:00,52.5,51.7,30.06,WNW,286,2.1,2.1,97,0.20,,OVC,0.03,0.0,WeatherDisplay:10.37,2013-02-23 05:46:00,
2013-02-23 00:51:00,52.5,51.7,30.06,WNW,296,0.7,3.5,97,0.10,CLR,OVC,0.03,0.0,WeatherDisplay:10.37,2013-02-23 05:51:00,
2013-02-23 00:56:00,52.5,51.7,30.05,NNW,329,1.1,2.3,97,0.07,CLR,OVC,0.03,0.0,WeatherDisplay:10.37,2013-02-23 05:56:00,
2013-02-23 01:01:00,52.4,51.6,30.06,NW,309,2.1,3.5,97,0.04,CLR,OVC,0.03,0.0,WeatherDisplay:10.37,2013-02-23 06:01:00,
2013-02-23 01:06:00,52.1,51.3,30.05,WSW,253,1.5,4.6,97,0.02,CLR,OVC,0.03,0.0,WeatherDisplay:10.37,2013-02-23 06:06:00,
2013-02-23 01:11:00,51.5,50.4,30.05,NW,315,2.4,3.5,96,0.02,CLR,OVC,0.03,0.0,WeatherDisplay:10.37,2013-02-23 06:11:00,
2013-02-23 01:16:00,50.9,49.8,30.05,NW,323,1.1,3.5,96,0.02,CLR,OVC,0.03,0.0,WeatherDisplay:10.37,2013-02-23 06:16:00,
2013-02-23 01:21:00,50.6,49.5,30.05,NNW,346,3.9,4.6,96,0.02,CLR,OVC,0.03,0.0,WeatherDisplay:10.37,2013-02-23 06:21:00,
2013-02-23 01:26:00,50.1,49.0,30.05,NW,323,1.2,2.3,96,0.02,CLR,OVC,0.03,0.0,WeatherDisplay:10.37,2013-02-23 06:26:00,
2013-02-23 01:31:00,49.7,48.6,30.04,NNE,22,1.6,3.5,96,0.02,CLR,OVC,0.03,0.0,WeatherDisplay:10.37,2013-02-23 06:31:00,
2013-02-23 01:36:00,49.1,48.0,30.05,West,269,0.6,3.5,96,0.00,CLR,OVC,0.03,0.0,WeatherDisplay:10.37,2013-02-23 06:36:00,
2013-02-23 01:41:00,48.7,47.6,30.04,WNW,302,0.6,2.3,96,0.00,CLR,OVC,0.03,0.0,WeatherDisplay:10.37,2013-02-23 06:41:00,
2013-02-23 01:46:00,48.4,47.3,30.04,North,355,1.1,3.5,96,0.00,CLR,OVC,0.03,0.0,WeatherDisplay:10.37,2013-02-23 06:46:00,
2013-02-23 01:51:00,48.2,47.1,30.03,North,5,1.4,3.5,96,0.00,CLR,OVC,0.03,0.0,WeatherDisplay:10.37,2013-02-23 06:51:00,
2013-02-23 01:56:00,48.0,46.9,30.04,NNW,338,3.1,6.9,96,0.00,CLR,OVC,0.03,0.0,WeatherDisplay:10.37,2013-02-23 06:56:00,
2013-02-23 02:01:00,47.8,46.7,30.04,WNW,303,2.4,5.8,96,0.00,CLR,OVC,0.03,0.0,WeatherDisplay:10.37,2013-02-23 07:01:00,
2013-02-23 02:06:00,47.7,46.6,30.04,West,275,3.7,6.9,96,0.00,CLR,OVC,0.03,0.0,WeatherDisplay:10.37,2013-02-23 07:06:00,
2013-02-23 02:11:00,47.6,46.5,30.03,NNE,18,1.4,3.5,96,0.00,CLR,OVC,0.03,0.0,WeatherDisplay:10.37,2013-02-23 07:11:00,
2013-02-23 02:16:00,47.5,46.4,30.03,WNW,296,2.3,4.6,96,0.00,CLR,OVC,0.03,0.0,WeatherDisplay:10.37,2013-02-23 07:16:00,
2013-02-23 02:21:00,47.4,46.3,30.03,NNW,344,4.1,6.9,96,0.00,CLR,OVC,0.03,0.0,WeatherDisplay:10.37,2013-02-23 07:21:00,
2013-02-23 02:26:00,47.2,46.1,30.03,NNW,339,2.0,4.6,96,0.00,CLR,OVC,0.03,0.0,WeatherDisplay:10.37,2013-02-23 07:26:00,
2013-02-23 02:31:00,47.1,46.3,30.03,West,275,2.2,3.5,97,0.00,CLR,OVC,0.03,0.0,WeatherDisplay:10.37,2013-02-23 07:31:00,
2013-02-23 02:36:00,46.9,46.1,30.02,NW,321,0.9,3.5,97,0.00,CLR,OVC,0.03,0.0,WeatherDisplay:10.37,2013-02-23 07:36:00,
2013-02-23 02:41:00,46.9,46.1,30.02,NNW,338,0.6,2.3,97,0.00,CLR,OVC,0.03,0.0,WeatherDisplay:10.37,2013-02-23 07:41:00,
2013-02-23 02:46:00,46.8,46.0,30.02,NNW,333,0.8,2.3,97,0.01,RA,OVC,0.04,0.0,WeatherDisplay:10.37,2013-02-23 07:46:00,
2013-02-23 02:51:00,46.8,46.0,30.01,North,355,1.3,3.5,97,0.01,RA,OVC,0.04,0.0,WeatherDisplay:10.37,2013-02-23 07:51:00,
2013-02-23 02:56:00,46.7,45.9,30.01,WNW,303,0.9,2.3,97,0.01,CLR,OVC,0.04,0.0,WeatherDisplay:10.37,2013-02-23 07:56:00,
2013-02-23 03:01:00,46.7,45.9,30.01,NW,319,0.9,3.0,97,0.01,CLR,OVC,0.04,0.0,WeatherDisplay:10.37,2013-02-23 08:01:00,
2013-02-23 03:06:00,46.6,45.8,30.01,NW,309,1.7,3.5,97,0.01,CLR,OVC,0.04,0.0,WeatherDisplay:10.37,2013-02-23 08:06:00,
2013-02-23 03:11:00,46.5,45.7,30.00,NW,323,1.9,3.5,97,0.02,RA,OVC,0.05,0.0,WeatherDisplay:10.37,2013-02-23 08:11:00,
2013-02-23 03:16:00,46.5,45.7,30.00,NNW,329,1.2,3.5,97,0.02,RA,OVC,0.05,0.0,WeatherDisplay:10.37,2013-02-23 08:16:00,
2013-02-23 03:21:00,46.4,45.6,29.99,WNW,287,1.7,3.5,97,0.02,,OVC,0.05,0.0,WeatherDisplay:10.37,2013-02-23 08:21:00,
2013-02-23 03:26:00,46.4,45.6,29.99,NW,304,1.1,1.1,97,0.02,CLR,OVC,0.05,0.0,WeatherDisplay:10.37,2013-02-23 08:26:00,
2013-02-23 03:31:00,46.4,45.6,29.99,NW,323,1.5,1.5,97,0.02,CLR,OVC,0.05,0.0,WeatherDisplay:10.37,2013-02-23 08:31:00,
2013-02-23 03:36:00,46.3,45.5,29.99,West,265,0.9,3.5,97,0.03,RA,OVC,0.06,0.0,WeatherDisplay:10.37,2013-02-23 08:36:00,
2013-02-23 03:41:00,46.3,45.5,29.99,NW,307,0.0,3.5,97,0.03,RA,OVC,0.06,0.0,WeatherDisplay:10.37,2013-02-23 08:41:00,
2013-02-23 03:46:00,46.3,45.5,29.99,NW,316,1.8,3.5,97,0.03,RA,OVC,0.07,0.0,WeatherDisplay:10.37,2013-02-23 08:46:00,
2013-02-23 03:51:00,46.3,45.5,29.99,NNW,336,0.3,3.5,97,0.03,RA,OVC,0.07,0.0,WeatherDisplay:10.37,2013-02-23 08:51:00,
2013-02-23 03:56:00,46.2,45.4,29.99,NW,311,0.4,3.5,97,0.03,,OVC,0.07,0.0,WeatherDisplay:10.37,2013-02-23 08:56:00,
2013-02-23 04:01:00,46.1,45.3,29.98,WNW,286,0.0,1.1,97,0.03,CLR,OVC,0.07,0.0,WeatherDisplay:10.37,2013-02-23 09:01:00,
2013-02-23 04:06:00,46.1,45.3,29.99,NW,306,1.4,3.0,97,0.03,CLR,OVC,0.07,0.0,WeatherDisplay:10.37,2013-02-23 09:06:00,
2013-02-23 04:11:00,46.1,45.3,29.99,WNW,300,1.3,1.3,97,0.02,CLR,OVC,0.07,0.0,WeatherDisplay:10.37,2013-02-23 09:11:00,
2013-02-23 04:16:00,46.0,45.2,29.98,WNW,292,0.5,2.0,97,0.02,CLR,OVC,0.07,0.0,WeatherDisplay:10.37,2013-02-23 09:16:00,
2013-02-23 04:21:00,46.0,45.2,29.98,NNW,333,0.6,1.1,97,0.02,CLR,OVC,0.07,0.0,WeatherDisplay:10.37,2013-02-23 09:21:00,
2013-02-23 04:26:00,46.0,45.2,29.98,NNW,331,1.4,2.3,97,0.02,CLR,OVC,0.07,0.0,WeatherDisplay:10.37,2013-02-23 09:26:00,
2013-02-23 04:31:00,46.0,45.2,29.98,WNW,293,1.6,4.6,97,0.02,CLR,OVC,0.07,0.0,WeatherDisplay:10.37,2013-02-23 09:31:00,
2013-02-23 04:36:00,46.0,45.2,29.98,WNW,291,0.1,2.3,97,0.02,RA,OVC,0.08,0.0,WeatherDisplay:10.37,2013-02-23 09:36:00,
2013-02-23 04:41:00,46.0,45.2,29.99,West,268,1.4,2.0,97,0.02,RA,OVC,0.08,0.0,WeatherDisplay:10.37,2013-02-23 09:41:00,
2013-02-23 04:46:00,45.9,45.1,29.99,WSW,256,2.8,3.5,97,0.01,,OVC,0.08,0.0,WeatherDisplay:10.37,2013-02-23 09:46:00,
2013-02-23 04:51:00,45.8,45.0,29.99,NW,305,0.3,2.3,97,0.01,CLR,OVC,0.08,0.0,WeatherDisplay:10.37,2013-02-23 09:51:00,
2013-02-23 04:57:00,45.7,44.9,29.98,NW,321,0.5,4.6,97,0.01,CLR,OVC,0.08,0.0,WeatherDisplay:10.37,2013-02-23 09:57:00,
2013-02-23 05:02:00,45.6,44.8,29.98,West,273,0.6,2.0,97,0.01,CLR,OVC,0.08,0.0,WeatherDisplay:10.37,2013-02-23 10:02:00,
2013-02-23 05:07:00,45.5,44.7,29.98,NNW,340,1.5,3.0,97,0.01,CLR,OVC,0.08,0.0,WeatherDisplay:10.37,2013-02-23 10:07:00,
2013-02-23 05:12:00,45.5,44.7,29.98,WNW,299,0.2,2.3,97,0.01,CLR,OVC,0.08,0.0,WeatherDisplay:10.37,2013-02-23 10:12:00,
2013-02-23 05:17:00,45.5,44.7,29.99,North,5,0.7,3.5,97,0.01,CLR,OVC,0.08,0.0,WeatherDisplay:10.37,2013-02-23 10:17:00,
2013-02-23 05:22:00,45.4,44.6,29.98,NNW,342,1.2,2.3,97,0.01,CLR,OVC,0.08,0.0,WeatherDisplay:10.37,2013-02-23 10:22:00,
2013-02-23 05:27:00,45.3,44.5,29.98,North,5,0.7,3.5,97,0.01,CLR,OVC,0.08,0.0,WeatherDisplay:10.37,2013-02-23 10:27:00,
2013-02-23 05:32:00,45.2,44.4,29.98,West,259,0.3,2.3,97,0.01,CLR,OVC,0.08,0.0,WeatherDisplay:10.37,2013-02-23 10:32:00,
2013-02-23 05:37:00,45.2,44.4,29.98,West,271,1.7,3.5,97,0.00,CLR,OVC,0.08,0.0,WeatherDisplay:10.37,2013-02-23 10:37:00,
2013-02-23 05:42:00,45.1,44.3,29.98,NW,318,0.4,2.3,97,0.00,CLR,OVC,0.08,0.0,WeatherDisplay:10.37,2013-02-23 10:42:00,
2013-02-23 05:47:00,45.0,44.2,29.98,NW,311,0.8,2.3,97,0.00,CLR,OVC,0.08,0.0,WeatherDisplay:10.37,2013-02-23 10:47:00,
2013-02-23 05:52:00,45.0,44.2,29.98,WNW,295,1.2,3.5,97,0.00,CLR,OVC,0.08,0.0,WeatherDisplay:10.37,2013-02-23 10:52:00,
2013-02-23 05:57:00,45.0,44.2,29.99,WSW,240,0.1,1.1,97,0.00,CLR,OVC,0.08,0.0,WeatherDisplay:10.37,2013-02-23 10:57:00,
2013-02-23 06:02:00,45.0,44.2,29.99,WNW,282,1.7,3.5,97,0.00,CLR,OVC,0.08,0.0,WeatherDisplay:10.37,2013-02-23 11:02:00,
2013-02-23 06:07:00,45.0,44.2,29.99,NW,306,3.1,5.8,97,0.01,RA,OVC,0.09,0.0,WeatherDisplay:10.37,2013-02-23 11:07:00,
2013-02-23 06:12:00,44.9,44.1,29.99,NNW,333,2.5,3.5,97,0.01,RA,OVC,0.09,0.0,WeatherDisplay:10.37,2013-02-23 11:12:00,
2013-02-23 06:17:00,44.8,44.0,29.99,NNW,343,1.4,3.5,97,0.01,,OVC,0.09,0.0,WeatherDisplay:10.37,2013-02-23 11:17:00,
2013-02-23 06:22:00,44.7,43.9,29.99,WNW,297,2.4,5.8,97,0.01,OVC,,0.09,0.0,WeatherDisplay:10.37,2013-02-23 11:22:00,
2013-02-23 06:27:00,44.7,43.9,29.99,West,267,1.3,3.0,97,0.01,OVC,,0.09,0.0,WeatherDisplay:10.37,2013-02-23 11:27:00,
2013-02-23 06:32:00,44.7,43.9,29.99,WNW,286,0.8,3.5,97,0.01,OVC,,0.09,0.0,WeatherDisplay:10.37,2013-02-23 11:32:00,
2013-02-23 06:37:00,44.6,43.8,30.00,NNW,336,1.0,3.5,97,0.01,OVC,,0.09,0.0,WeatherDisplay:10.37,2013-02-23 11:37:00,
2013-02-23 06:42:00,44.6,43.8,29.99,WNW,302,1.5,3.5,97,0.01,OVC,,0.09,0.0,WeatherDisplay:10.37,2013-02-23 11:42:00,
2013-02-23 06:47:00,44.5,43.7,29.99,NW,311,0.1,1.1,97,0.01,OVC,,0.09,0.0,WeatherDisplay:10.37,2013-02-23 11:47:00,
2013-02-23 06:52:00,44.4,43.6,29.99,NNW,342,0.7,3.5,97,0.02,RA,OVC,0.10,0.0,WeatherDisplay:10.37,2013-02-23 11:52:00,
2013-02-23 06:57:00,44.4,43.6,29.99,NW,325,2.5,3.5,97,0.02,RA,OVC,0.10,0.0,WeatherDisplay:10.37,2013-02-23 11:57:00,
2013-02-23 07:02:00,44.3,43.5,29.99,NW,307,1.9,4.0,97,0.02,OVC,,0.10,0.0,WeatherDisplay:10.37,2013-02-23 12:02:00,
2013-02-23 07:07:00,44.3,43.5,29.99,NW,317,1.9,3.5,97,0.02,RA,OVC,0.11,0.0,WeatherDisplay:10.37,2013-02-23 12:07:00,
2013-02-23 07:12:00,44.2,43.4,29.99,NNW,332,1.6,6.0,97,0.02,RA,OVC,0.11,0.0,WeatherDisplay:10.37,2013-02-23 12:12:00,
2013-02-23 07:17:00,44.1,43.3,29.99,North,355,1.8,4.0,97,0.02,OVC,,0.11,0.0,WeatherDisplay:10.37,2013-02-23 12:17:00,
2013-02-23 07:22:00,44.1,43.3,29.99,North,350,3.3,6.9,97,0.03,RA,OVC,0.12,0.0,WeatherDisplay:10.37,2013-02-23 12:22:00,
2013-02-23 07:27:00,44.0,43.2,29.99,NW,310,3.4,4.6,97,0.03,RA,OVC,0.12,0.0,WeatherDisplay:10.37,2013-02-23 12:27:00,
2013-02-23 07:32:00,44.0,43.2,29.99,NW,322,2.4,3.5,97,0.03,OVC,,0.12,0.0,WeatherDisplay:10.37,2013-02-23 12:32:00,
2013-02-23 07:37:00,43.9,43.1,29.99,NW,321,0.7,2.3,97,0.04,RA,OVC,0.13,0.0,WeatherDisplay:10.37,2013-02-23 12:37:00,
2013-02-23 07:42:00,43.9,43.1,30.00,NW,326,2.8,5.8,97,0.04,RA,OVC,0.13,0.0,WeatherDisplay:10.37,2013-02-23 12:42:00,
2013-02-23 07:47:00,43.9,43.1,30.00,NW,323,1.1,3.5,97,0.04,OVC,,0.14,0.0,WeatherDisplay:10.37,2013-02-23 12:47:00,
2013-02-23 07:52:00,43.9,43.1,29.99,West,264,0.4,2.0,97,0.04,RA,OVC,0.14,0.0,WeatherDisplay:10.37,2013-02-23 12:52:00,
2013-02-23 07:57:00,43.9,43.1,29.99,North,360,1.2,3.5,97,0.05,RA,OVC,0.15,0.0,WeatherDisplay:10.37,2013-02-23 12:57:00,
2013-02-23 08:02:00,43.9,43.1,29.99,WSW,257,0.3,1.1,97,0.06,RA,OVC,0.16,0.0,WeatherDisplay:10.37,2013-02-23 13:02:00,
2013-02-23 08:07:00,44.0,43.5,29.99,WNW,302,0.1,1.1,98,0.05,RA,OVC,0.16,0.0,WeatherDisplay:10.37,2013-02-23 13:07:00,
2013-02-23 08:12:00,44.0,43.5,30.00,SW,224,0.3,2.3,98,0.06,RA,OVC,0.17,0.0,WeatherDisplay:10.37,2013-02-23 13:12:00,
2013-02-23 08:17:00,44.0,43.5,30.00,WNW,288,0.0,0.0,98,0.06,RA,OVC,0.17,0.0,WeatherDisplay:10.37,2013-02-23 13:17:00,
2013-02-23 08:22:00,44.1,43.6,30.00,NNW,331,0.6,2.3,98,0.05,OVC,,0.17,0.0,WeatherDisplay:10.37,2013-02-23 13:22:00,
2013-02-23 08:27:00,44.2,43.7,30.00,NW,305,2.4,3.5,98,0.06,RA,OVC,0.18,0.0,WeatherDisplay:10.37,2013-02-23 13:27:00,
2013-02-23 08:32:00,44.2,43.7,30.00,NNW,342,2.9,3.5,98,0.06,RA,OVC,0.18,0.0,WeatherDisplay:10.37,2013-02-23 13:32:00,
2013-02-23 08:37:00,44.2,43.4,29.99,NW,304,3.0,3.5,97,0.05,OVC,,0.18,0.0,WeatherDisplay:10.37,2013-02-23 13:37:00,
2013-02-23 08:42:00,44.2,43.4,29.99,NNW,327,1.8,4.6,97,0.06,RA,OVC,0.19,0.0,WeatherDisplay:10.37,2013-02-23 13:42:00,
2013-02-23 08:47:00,44.2,43.4,29.98,NW,319,2.8,6.9,97,0.06,RA,OVC,0.19,0.0,WeatherDisplay:10.37,2013-02-23 13:47:00,
2013-02-23 08:52:00,44.1,43.3,29.97,NW,323,2.7,5.8,97,0.05,OVC,,0.19,0.0,WeatherDisplay:10.37,2013-02-23 13:52:00,
2013-02-23 08:57:00,44.1,43.3,29.97,NNW,341,1.8,8.1,97,0.04,OVC,,0.19,0.0,WeatherDisplay:10.37,2013-02-23 13:57:00,
2013-02-23 09:02:00,44.2,43.4,29.97,NNW,347,4.1,4.6,97,0.04,RA,OVC,0.20,0.0,WeatherDisplay:10.37,2013-02-23 14:02:00,
2013-02-23 09:07:00,44.2,43.4,29.97,NNW,342,3.5,4.0,97,0.04,RA,OVC,0.20,0.0,WeatherDisplay:10.37,2013-02-23 14:07:00,
2013-02-23 09:12:00,44.3,43.5,29.97,NW,321,2.6,5.8,97,0.03,OVC,,0.20,0.0,WeatherDisplay:10.37,2013-02-23 14:12:00,
2013-02-23 09:17:00,44.3,43.5,29.97,WNW,298,4.3,8.1,97,0.03,OVC,,0.20,0.0,WeatherDisplay:10.37,2013-02-23 14:17:00,
2013-02-23 09:22:00,44.3,43.5,29.97,North,355,2.1,4.0,97,0.03,OVC,,0.20,0.0,WeatherDisplay:10.37,2013-02-23 14:22:00,
2013-02-23 09:27:00,44.3,43.5,29.96,North,360,3.4,4.6,97,0.02,OVC,,0.20,0.0,WeatherDisplay:10.37,2013-02-23 14:27:00,
2013-02-23 09:32:00,44.3,43.5,29.96,WNW,284,2.4,3.5,97,0.02,OVC,,0.20,0.0,WeatherDisplay:10.37,2013-02-23 14:32:00,
2013-02-23 09:37:00,44.4,43.6,29.96,North,5,1.0,1.1,97,0.02,OVC,,0.20,0.0,WeatherDisplay:10.37,2013-02-23 14:37:00,
2013-02-23 09:42:00,44.4,43.9,29.96,NNW,338,2.7,3.5,98,0.01,OVC,,0.20,0.0,WeatherDisplay:10.37,2013-02-23 14:42:00,
2013-02-23 09:47:00,44.4,43.6,29.97,NW,309,1.8,3.5,97,0.01,OVC,,0.20,0.0,WeatherDisplay:10.37,2013-02-23 14:47:00,
2013-02-23 09:52:00,44.3,43.5,29.97,NNW,332,0.6,1.1,97,0.02,RA,OVC,0.21,0.0,WeatherDisplay:10.37,2013-02-23 14:52:00,
2013-02-23 09:57:00,44.4,43.6,29.97,North,350,1.6,5.0,97,0.03,RA,OVC,0.22,0.0,WeatherDisplay:10.37,2013-02-23 14:57:00,
2013-02-23 10:02:00,44.3,43.5,29.97,NW,324,1.2,3.5,97,0.03,RA,OVC,0.23,0.0,WeatherDisplay:10.37,2013-02-23 15:02:00,
2013-02-23 10:07:00,44.3,43.5,29.96,NNE,18,1.2,3.5,97,0.03,RA,OVC,0.23,0.0,WeatherDisplay:10.37,2013-02-23 15:07:00,
2013-02-23 10:12:00,44.4,43.9,29.97,NNE,18,1.5,2.3,98,0.04,RA,OVC,0.24,0.0,WeatherDisplay:10.37,2013-02-23 15:12:00,
2013-02-23 10:17:00,44.5,44.0,29.96,NNE,28,0.6,3.5,98,0.05,RA,OVC,0.25,0.0,WeatherDisplay:10.37,2013-02-23 15:17:00,
2013-02-23 10:22:00,44.6,44.1,29.95,NNW,329,0.8,3.5,98,0.06,RA,OVC,0.26,0.0,WeatherDisplay:10.37,2013-02-23 15:22:00,
2013-02-23 10:28:00,44.7,44.2,29.95,North,5,0.3,2.3,98,0.07,RA,OVC,0.28,0.0,WeatherDisplay:10.37,2013-02-23 15:28:00,
2013-02-23 10:33:00,44.7,43.9,29.94,NE,36,2.3,4.6,97,0.08,RA,OVC,0.28,0.0,WeatherDisplay:10.37,2013-02-23 15:33:00,
2013-02-23 10:38:00,44.7,43.9,29.94,NE,38,0.2,3.5,97,0.08,RA,OVC,0.28,0.0,WeatherDisplay:10.37,2013-02-23 15:38:00,
2013-02-23 10:43:00,44.8,44.0,29.94,NNE,28,1.7,3.5,97,0.09,RA,OVC,0.29,0.0,WeatherDisplay:10.37,2013-02-23 15:43:00,
2013-02-23 10:48:00,44.8,44.0,29.94,NNE,29,0.0,1.1,97,0.09,RA,OVC,0.29,0.0,WeatherDisplay:10.37,2013-02-23 15:48:00,
2013-02-23 10:53:00,45.0,44.2,29.94,NNE,29,0.2,2.3,97,0.08,OVC,,0.29,0.0,WeatherDisplay:10.37,2013-02-23 15:53:00,
2013-02-23 10:58:00,45.2,44.7,29.94,NNE,30,0.0,0.0,98,0.08,RA,OVC,0.30,0.0,WeatherDisplay:10.37,2013-02-23 15:58:00,
2013-02-23 11:03:00,45.4,44.9,29.94,NNE,30,1.0,2.3,98,0.07,RA,OVC,0.30,0.0,WeatherDisplay:10.37,2013-02-23 16:03:00,
2013-02-23 11:08:00,45.5,45.0,29.94,NNE,30,0.6,2.0,98,0.07,RA,OVC,0.30,0.0,WeatherDisplay:10.37,2013-02-23 16:08:00,
2013-02-23 11:13:00,45.6,45.1,29.94,WNW,300,1.9,2.0,98,0.06,OVC,,0.30,0.0,WeatherDisplay:10.37,2013-02-23 16:13:00,
2013-02-23 11:18:00,45.7,45.2,29.93,NNE,18,2.3,3.5,98,0.05,OVC,,0.30,0.0,WeatherDisplay:10.37,2013-02-23 16:18:00,
2013-02-23 11:23:00,45.8,45.3,29.94,NNE,18,0.7,2.3,98,0.04,OVC,,0.30,0.0,WeatherDisplay:10.37,2013-02-23 16:23:00,
2013-02-23 11:28:00,45.9,45.4,29.94,WNW,298,0.3,1.1,98,0.03,RA,OVC,0.31,0.0,WeatherDisplay:10.37,2013-02-23 16:28:00,
2013-02-23 11:33:00,46.0,45.5,29.93,NNE,15,2.2,3.5,98,0.03,RA,OVC,0.31,0.0,WeatherDisplay:10.37,2013-02-23 16:33:00,
2013-02-23 11:38:00,45.9,45.4,29.94,SW,236,0.9,2.3,98,0.03,OVC,,0.31,0.0,WeatherDisplay:10.37,2013-02-23 16:38:00,
2013-02-23 11:43:00,45.9,45.4,29.94,SW,231,2.5,3.5,98,0.02,OVC,,0.31,0.0,WeatherDisplay:10.37,2013-02-23 16:43:00,
2013-02-23 11:48:00,45.8,45.0,29.94,WNW,283,0.8,3.5,97,0.02,OVC,,0.31,0.0,WeatherDisplay:10.37,2013-02-23 16:48:00,
2013-02-23 11:53:00,45.8,45.3,29.93,WNW,289,0.1,1.0,98,0.02,OVC,,0.31,0.0,WeatherDisplay:10.37,2013-02-23 16:53:00,
2013-02-23 11:58:00,45.9,45.4,29.93,NW,310,1.0,3.5,98,0.02,RA,OVC,0.32,0.0,WeatherDisplay:10.37,2013-02-23 16:58:00,
2013-02-23 12:03:00,45.9,45.1,29.92,NW,310,0.0,0.0,97,0.02,RA,OVC,0.32,0.0,WeatherDisplay:10.37,2013-02-23 17:03:00,
2013-02-23 12:08:00,46.0,45.2,29.92,NW,317,0.2,1.1,97,0.02,OVC,,0.32,0.0,WeatherDisplay:10.37,2013-02-23 17:08:00,
2013-02-23 12:13:00,46.1,45.6,29.92,NW,317,0.0,0.0,98,0.02,OVC,,0.32,0.0,WeatherDisplay:10.37,2013-02-23 17:13:00,
2013-02-23 12:18:00,46.4,45.9,29.92,NW,317,1.1,2.3,98,0.02,OVC,,0.32,0.0,WeatherDisplay:10.37,2013-02-23 17:18:00,
2013-02-23 12:23:00,46.6,46.1,29.91,NNW,333,0.1,1.0,98,0.02,OVC,,0.32,0.0,WeatherDisplay:10.37,2013-02-23 17:23:00,
2013-02-23 12:28:00,46.7,46.2,29.92,NNE,15,0.0,0.0,98,0.01,OVC,,0.32,0.0,WeatherDisplay:10.37,2013-02-23 17:28:00,
2013-02-23 12:33:00,46.8,46.3,29.92,NNE,15,0.0,0.0,98,0.01,OVC,,0.32,0.0,WeatherDisplay:10.37,2013-02-23 17:33:00,
2013-02-23 12:38:00,46.9,46.4,29.91,NNE,15,0.1,1.1,98,0.01,OVC,,0.32,0.0,WeatherDisplay:10.37,2013-02-23 17:38:00,
2013-02-23 12:43:00,46.9,46.4,29.91,NNE,14,0.5,2.3,98,0.01,OVC,,0.32,0.0,WeatherDisplay:10.37,2013-02-23 17:43:00,
2013-02-23 12:48:00,46.8,46.0,29.91,NNE,14,0.2,1.1,97,0.01,OVC,,0.32,0.0,WeatherDisplay:10.37,2013-02-23 17:48:00,
2013-02-23 12:53:00,46.8,46.0,29.91,West,274,0.4,2.3,97,0.01,OVC,,0.32,0.0,WeatherDisplay:10.37,2013-02-23 17:53:00,
2013-02-23 12:58:00,46.9,46.4,29.91,WSW,252,0.4,2.3,98,0.00,OVC,,0.32,0.0,WeatherDisplay:10.37,2013-02-23 17:58:00,
2013-02-23 13:03:00,46.8,46.0,29.91,WSW,247,2.7,4.6,97,0.00,OVC,,0.32,0.0,WeatherDisplay:10.37,2013-02-23 18:03:00,
2013-02-23 13:08:00,46.8,46.0,29.91,WSW,242,1.8,4.6,97,0.00,OVC,,0.32,0.0,WeatherDisplay:10.37,2013-02-23 18:08:00,
2013-02-23 13:13:00,46.9,46.1,29.91,West,280,0.3,3.5,97,0.00,OVC,,0.32,0.0,WeatherDisplay:10.37,2013-02-23 18:13:00,
2013-02-23 13:18:00,46.9,46.4,29.91,WSW,254,0.5,2.3,98,0.00,OVC,,0.32,0.0,WeatherDisplay:10.37,2013-02-23 18:18:00,
2013-02-23 13:23:00,47.0,46.2,29.90,WNW,295,3.0,5.8,97,0.00,OVC,,0.32,0.0,WeatherDisplay:10.37,2013-02-23 18:23:00,
2013-02-23 13:28:00,46.9,46.1,29.90,NW,307,2.4,4.6,97,0.00,OVC,,0.32,0.0,WeatherDisplay:10.37,2013-02-23 18:28:00,
2013-02-23 13:33:00,47.0,46.2,29.89,North,11,0.9,3.5,97,0.00,OVC,,0.32,0.0,WeatherDisplay:10.37,2013-02-23 18:33:00,
2013-02-23 13:38:00,47.1,46.3,29.89,NNW,348,0.0,1.1,97,0.00,OVC,,0.32,0.0,WeatherDisplay:10.37,2013-02-23 18:38:00,
2013-02-23 13:43:00,47.2,46.4,29.90,WSW,244,2.1,3.5,97,0.00,OVC,,0.32,0.0,WeatherDisplay:10.37,2013-02-23 18:43:00,
2013-02-23 13:48:00,47.2,46.4,29.90,West,269,1.2,4.0,97,0.00,OVC,,0.32,0.0,WeatherDisplay:10.37,2013-02-23 18:48:00,
2013-02-23 13:53:00,47.2,46.4,29.91,WSW,254,4.0,6.9,97,0.00,OVC,,0.32,0.0,WeatherDisplay:10.37,2013-02-23 18:53:00,
2013-02-23 13:58:00,47.0,46.2,29.90,West,269,1.8,3.5,97,0.00,OVC,,0.32,0.0,WeatherDisplay:10.37,2013-02-23 18:58:00,
2013-02-23 14:03:00,47.0,46.2,29.91,West,269,0.5,2.3,97,0.00,OVC,,0.32,0.0,WeatherDisplay:10.37,2013-02-23 19:03:00,
2013-02-23 14:08:00,47.0,46.2,29.90,West,272,2.5,3.5,97,0.00,OVC,,0.32,0.0,WeatherDisplay:10.37,2013-02-23 19:08:00,
2013-02-23 14:13:00,47.0,46.2,29.89,NW,304,0.7,2.3,97,0.00,OVC,,0.32,0.0,WeatherDisplay:10.37,2013-02-23 19:13:00,
2013-02-23 14:18:00,47.2,46.4,29.88,WSW,242,0.4,2.0,97,0.00,OVC,,0.32,0.0,WeatherDisplay:10.37,2013-02-23 19:18:00,
2013-02-23 14:23:00,47.4,46.9,29.88,WSW,242,0.0,1.1,98,0.00,OVC,,0.32,0.0,WeatherDisplay:10.37,2013-02-23 19:23:00,
2013-02-23 14:28:00,47.6,47.1,29.86,WSW,242,0.0,0.0,98,0.00,OVC,,0.32,0.0,WeatherDisplay:10.37,2013-02-23 19:28:00,
2013-02-23 14:33:00,47.9,47.4,29.87,WSW,244,0.1,0.0,98,0.00,OVC,,0.32,0.0,WeatherDisplay:10.37,2013-02-23 19:33:00,
2013-02-23 14:38:00,48.2,47.7,29.88,WSW,244,0.6,2.3,98,0.00,OVC,,0.32,0.0,WeatherDisplay:10.37,2013-02-23 19:38:00,
2013-02-23 14:43:00,48.5,48.0,29.88,SW,229,1.5,4.0,98,0.00,OVC,,0.32,0.0,WeatherDisplay:10.37,2013-02-23 19:43:00,
2013-02-23 14:48:00,48.8,48.3,29.89,West,265,0.5,3.5,98,0.00,OVC,,0.32,0.0,WeatherDisplay:10.37,2013-02-23 19:48:00,
2013-02-23 14:53:00,49.0,48.5,29.88,WSW,244,0.4,3.5,98,0.00,OVC,,0.32,0.0,WeatherDisplay:10.37,2013-02-23 19:53:00,
2013-02-23 14:58:00,49.0,48.5,29.89,SSW,207,1.0,3.5,98,0.00,OVC,,0.32,0.0,WeatherDisplay:10.37,2013-02-23 19:58:00,
2013-02-23 15:03:00,49.0,48.5,29.88,WNW,284,1.5,4.6,98,0.00,OVC,,0.32,0.0,WeatherDisplay:10.37,2013-02-23 20:03:00,
2013-02-23 15:08:00,49.0,48.5,29.88,West,267,3.2,4.6,98,0.00,OVC,,0.32,0.0,WeatherDisplay:10.37,2013-02-23 20:08:00,
2013-02-23 15:13:00,49.1,48.6,29.88,WNW,295,0.0,1.1,98,0.00,OVC,,0.32,0.0,WeatherDisplay:10.37,2013-02-23 20:13:00,
2013-02-23 15:18:00,49.1,48.6,29.88,WNW,303,0.3,1.1,98,0.00,OVC,,0.32,0.0,WeatherDisplay:10.37,2013-02-23 20:18:00,
2013-02-23 15:23:00,49.1,48.6,29.87,WNW,285,0.8,3.5,98,0.00,OVC,,0.32,0.0,WeatherDisplay:10.37,2013-02-23 20:23:00,
2013-02-23 15:29:00,49.1,48.6,29.87,NNW,327,1.6,3.5,98,0.00,OVC,,0.32,0.0,WeatherDisplay:10.37,2013-02-23 20:29:00,
2013-02-23 15:34:00,49.1,48.3,29.87,NW,305,2.5,4.0,97,0.00,OVC,,0.32,0.0,WeatherDisplay:10.37,2013-02-23 20:34:00,
2013-02-23 15:39:00,49.0,48.2,29.87,West,271,1.2,3.5,97,0.00,OVC,,0.32,0.0,WeatherDisplay:10.37,2013-02-23 20:39:00,
2013-02-23 15:44:00,48.9,48.1,29.88,SW,226,2.1,5.0,97,0.00,OVC,,0.32,0.0,WeatherDisplay:10.37,2013-02-23 20:44:00,
2013-02-23 15:49:00,48.8,48.0,29.87,West,261,0.6,2.3,97,0.00,OVC,,0.32,0.0,WeatherDisplay:10.37,2013-02-23 20:49:00,
2013-02-23 15:54:00,48.9,48.1,29.87,West,275,2.2,3.5,97,0.00,OVC,,0.32,0.0,WeatherDisplay:10.37,2013-02-23 20:54:00,
2013-02-23 15:59:00,48.8,48.0,29.86,NW,319,0.1,1.1,97,0.00,OVC,,0.32,0.0,WeatherDisplay:10.37,2013-02-23 20:59:00,
2013-02-23 16:04:00,48.8,48.0,29.88,NW,310,3.6,5.0,97,0.00,OVC,,0.32,0.0,WeatherDisplay:10.37,2013-02-23 21:04:00,
2013-02-23 16:09:00,48.7,47.9,29.86,West,281,1.4,5.0,97,0.00,OVC,,0.32,0.0,WeatherDisplay:10.37,2013-02-23 21:09:00,
2013-02-23 16:14:00,48.6,47.8,29.86,West,273,2.2,4.0,97,0.00,OVC,,0.32,0.0,WeatherDisplay:10.37,2013-02-23 21:14:00,
2013-02-23 16:19:00,48.5,47.7,29.87,SW,229,1.0,3.5,97,0.00,OVC,,0.32,0.0,WeatherDisplay:10.37,2013-02-23 21:19:00,
2013-02-23 16:24:00,48.5,47.7,29.86,NNW,330,0.7,2.3,97,0.00,OVC,,0.32,0.0,WeatherDisplay:10.37,2013-02-23 21:24:00,
2013-02-23 16:29:00,48.4,47.6,29.87,West,275,0.7,2.3,97,0.00,OVC,,0.32,0.0,WeatherDisplay:10.37,2013-02-23 21:29:00,
2013-02-23 16:34:00,48.5,47.7,29.87,West,281,0.2,2.3,97,0.00,OVC,,0.32,0.0,WeatherDisplay:10.37,2013-02-23 21:34:00,
2013-02-23 16:39:00,48.5,47.7,29.86,West,277,1.7,2.3,97,0.00,OVC,,0.32,0.0,WeatherDisplay:10.37,2013-02-23 21:39:00,
2013-02-23 16:44:00,48.4,47.6,29.86,SW,229,0.3,1.1,97,0.00,OVC,,0.32,0.0,WeatherDisplay:10.37,2013-02-23 21:44:00,
2013-02-23 16:49:00,48.4,47.6,29.85,West,267,0.3,1.1,97,0.00,OVC,,0.32,0.0,WeatherDisplay:10.37,2013-02-23 21:49:00,
2013-02-23 16:54:00,48.3,47.5,29.85,NW,320,2.4,3.5,97,0.00,OVC,,0.32,0.0,WeatherDisplay:10.37,2013-02-23 21:54:00,
2013-02-23 16:59:00,48.3,47.5,29.85,NW,313,0.7,3.0,97,0.00,OVC,,0.32,0.0,WeatherDisplay:10.37,2013-02-23 21:59:00,
2013-02-23 17:04:00,48.3,47.5,29.87,NW,321,0.6,2.3,97,0.00,OVC,,0.32,0.0,WeatherDisplay:10.37,2013-02-23 22:04:00,
2013-02-23 17:09:00,48.3,47.5,29.85,North,349,0.9,3.5,97,0.00,OVC,,0.32,0.0,WeatherDisplay:10.37,2013-02-23 22:09:00,
2013-02-23 17:14:00,48.2,47.4,29.86,WSW,250,1.7,5.0,97,0.00,OVC,,0.32,0.0,WeatherDisplay:10.37,2013-02-23 22:14:00,
2013-02-23 17:19:00,48.2,47.4,29.86,WSW,240,2.3,4.6,97,0.00,OVC,,0.32,0.0,WeatherDisplay:10.37,2013-02-23 22:19:00,
2013-02-23 17:24:00,48.2,47.4,29.85,WSW,243,0.4,3.0,97,0.00,OVC,,0.32,0.0,WeatherDisplay:10.37,2013-02-23 22:24:00,
2013-02-23 17:29:00,48.2,47.4,29.86,West,263,0.9,2.3,97,0.00,OVC,,0.32,0.0,WeatherDisplay:10.37,2013-02-23 22:29:00,
2013-02-23 17:34:00,48.1,47.3,29.86,WSW,249,0.7,2.3,97,0.00,OVC,,0.32,0.0,WeatherDisplay:10.37,2013-02-23 22:34:00,
2013-02-23 17:39:00,48.1,47.3,29.85,NNW,328,0.0,1.1,97,0.00,OVC,,0.32,0.0,WeatherDisplay:10.37,2013-02-23 22:39:00,
2013-02-23 17:44:00,48.1,47.3,29.87,WSW,257,1.2,2.3,97,0.00,OVC,,0.32,0.0,WeatherDisplay:10.37,2013-02-23 22:44:00,
2013-02-23 17:49:00,48.1,47.3,29.86,North,355,0.8,3.5,97,0.00,OVC,,0.32,0.0,WeatherDisplay:10.37,2013-02-23 22:49:00,
2013-02-23 17:54:00,48.1,47.3,29.87,NNW,344,0.3,1.1,97,0.00,OVC,,0.32,0.0,WeatherDisplay:10.37,2013-02-23 22:54:00,
2013-02-23 17:59:00,48.0,47.2,29.87,NNW,337,0.1,1.1,97,0.00,OVC,,0.32,0.0,WeatherDisplay:10.37,2013-02-23 22:59:00,
2013-02-23 18:04:00,48.0,47.2,29.86,North,5,1.2,1.2,97,0.00,OVC,,0.32,0.0,WeatherDisplay:10.37,2013-02-23 23:04:00,
2013-02-23 18:09:00,48.0,47.2,29.85,West,261,0.3,1.1,97,0.00,OVC,,0.32,0.0,WeatherDisplay:10.37,2013-02-23 23:09:00,
2013-02-23 18:14:00,48.0,47.2,29.86,NNW,331,1.1,3.5,97,0.00,OVC,,0.32,0.0,WeatherDisplay:10.37,2013-02-23 23:14:00,
2013-02-23 18:19:00,48.0,47.2,29.86,NNW,329,1.6,3.5,97,0.00,OVC,,0.32,0.0,WeatherDisplay:10.37,2013-02-23 23:19:00,
2013-02-23 18:24:00,47.9,47.1,29.85,SSW,200,0.1,3.5,97,0.00,OVC,,0.32,0.0,WeatherDisplay:10.37,2013-02-23 23:24:00,
2013-02-23 18:29:00,47.9,47.1,29.85,NNE,19,1.1,2.3,97,0.00,OVC,,0.32,0.0,WeatherDisplay:10.37,2013-02-23 23:29:00,
2013-02-23 18:34:00,47.8,47.0,29.84,ENE,58,0.0,2.3,97,0.00,OVC,,0.32,0.0,WeatherDisplay:10.37,2013-02-23 23:34:00,
2013-02-23 18:39:00,47.8,47.0,29.85,WNW,300,1.0,3.5,97,0.00,CLR,OVC,0.32,0.0,WeatherDisplay:10.37,2013-02-23 23:39:00,
2013-02-23 18:44:00,47.8,47.0,29.86,NW,306,0.0,3.5,97,0.00,CLR,OVC,0.32,0.0,WeatherDisplay:10.37,2013-02-23 23:44:00,
2013-02-23 18:49:00,47.8,47.0,29.87,NW,324,1.3,2.3,97,0.00,CLR,OVC,0.32,0.0,WeatherDisplay:10.37,2013-02-23 23:49:00,
2013-02-23 18:54:00,47.9,47.1,29.86,NW,316,0.5,3.5,97,0.00,CLR,OVC,0.32,0.0,WeatherDisplay:10.37,2013-02-23 23:54:00,
2013-02-23 18:59:00,47.8,47.0,29.86,WSW,256,0.8,1.1,97,0.00,CLR,OVC,0.32,0.0,WeatherDisplay:10.37,2013-02-23 23:59:00,
2013-02-23 19:04:00,47.9,47.1,29.87,SSW,197,0.0,1.1,97,0.00,CLR,OVC,0.32,0.0,WeatherDisplay:10.37,2013-02-24 00:04:00,
2013-02-23 19:09:00,47.9,47.1,29.87,SSW,197,0.0,0.0,97,0.00,CLR,OVC,0.32,0.0,WeatherDisplay:10.37,2013-02-24 00:09:00,
2013-02-23 19:14:00,47.9,47.1,29.87,SSW,197,0.0,1.1,97,0.00,CLR,OVC,0.32,0.0,WeatherDisplay:10.37,2013-02-24 00:14:00,
2013-02-23 19:19:00,47.9,47.1,29.87,SSW,197,0.0,1.1,97,0.00,CLR,OVC,0.32,0.0,WeatherDisplay:10.37,2013-02-24 00:19:00,
2013-02-23 19:24:00,47.9,47.1,29.87,SSW,197,0.0,0.0,97,0.00,CLR,OVC,0.32,0.0,WeatherDisplay:10.37,2013-02-24 00:24:00,
2013-02-23 19:29:00,47.9,47.1,29.87,SSW,197,0.1,0.0,97,0.00,CLR,OVC,0.32,0.0,WeatherDisplay:10.37,2013-02-24 00:29:00,
2013-02-23 19:34:00,48.0,47.5,29.88,WSW,254,0.4,1.1,98,0.00,CLR,OVC,0.32,0.0,WeatherDisplay:10.37,2013-02-24 00:34:00,
2013-02-23 19:39:00,48.0,47.5,29.88,WNW,298,1.3,3.5,98,0.00,CLR,OVC,0.32,0.0,WeatherDisplay:10.37,2013-02-24 00:39:00,
2013-02-23 19:44:00,48.0,47.5,29.87,NW,317,3.1,3.1,98,0.00,CLR,OVC,0.32,0.0,WeatherDisplay:10.37,2013-02-24 00:44:00,
2013-02-23 19:49:00,47.9,47.4,29.88,West,260,0.2,3.5,98,0.00,CLR,OVC,0.32,0.0,WeatherDisplay:10.37,2013-02-24 00:49:00,
2013-02-23 19:54:00,48.0,47.5,29.90,West,263,1.3,2.3,98,0.00,CLR,OVC,0.32,0.0,WeatherDisplay:10.37,2013-02-24 00:54:00,
2013-02-23 19:59:00,47.9,47.1,29.90,NW,319,1.3,5.8,97,0.00,CLR,OVC,0.32,0.0,WeatherDisplay:10.37,2013-02-24 00:59:00,
2013-02-23 20:04:00,47.9,47.1,29.89,NNE,32,0.3,2.3,97,0.00,CLR,OVC,0.32,0.0,WeatherDisplay:10.37,2013-02-24 01:04:00,
2013-02-23 20:09:00,47.9,47.1,29.88,WNW,283,1.0,2.3,97,0.00,CLR,OVC,0.32,0.0,WeatherDisplay:10.37,2013-02-24 01:09:00,
2013-02-23 20:14:00,47.8,47.0,29.87,SSE,161,1.5,2.3,97,0.00,CLR,OVC,0.32,0.0,WeatherDisplay:10.37,2013-02-24 01:14:00,
2013-02-23 20:20:00,47.8,47.0,29.88,SSE,153,0.2,3.5,97,0.00,CLR,OVC,0.32,0.0,WeatherDisplay:10.37,2013-02-24 01:20:00,
2013-02-23 20:25:00,47.8,47.0,29.88,SSE,155,0.0,1.1,97,0.00,CLR,OVC,0.32,0.0,WeatherDisplay:10.37,2013-02-24 01:25:00,
2013-02-23 20:30:00,47.8,47.0,29.86,ESE,117,2.2,2.3,97,0.00,CLR,OVC,0.32,0.0,WeatherDisplay:10.37,2013-02-24 01:30:00,
2013-02-23 20:35:00,47.8,47.0,29.88,WNW,297,1.3,3.5,97,0.00,CLR,OVC,0.32,0.0,WeatherDisplay:10.37,2013-02-24 01:35:00,
2013-02-23 20:40:00,47.9,47.1,29.88,WNW,297,0.3,2.3,97,0.00,CLR,OVC,0.32,0.0,WeatherDisplay:10.37,2013-02-24 01:40:00,
2013-02-23 20:45:00,47.9,47.1,29.87,NNE,14,0.1,3.5,97,0.00,CLR,OVC,0.32,0.0,WeatherDisplay:10.37,2013-02-24 01:45:00,
2013-02-23 20:50:00,47.9,47.1,29.86,NNE,14,0.0,0.0,97,0.00,CLR,OVC,0.32,0.0,WeatherDisplay:10.37,2013-02-24 01:50:00,
2013-02-23 20:55:00,47.8,47.0,29.88,NNE,19,0.0,1.1,97,0.00,CLR,OVC,0.32,0.0,WeatherDisplay:10.37,2013-02-24 01:55:00,
2013-02-23 21:00:00,47.8,47.0,29.88,NNE,18,0.3,1.1,97,0.00,CLR,OVC,0.32,0.0,WeatherDisplay:10.37,2013-02-24 02:00:00,
2013-02-23 21:05:00,47.8,47.0,29.88,SSE,161,2.1,3.5,97,0.00,CLR,OVC,0.32,0.0,WeatherDisplay:10.37,2013-02-24 02:05:00,
2013-02-23 21:10:00,47.8,47.0,29.89,SW,224,1.6,3.5,97,0.00,CLR,OVC,0.32,0.0,WeatherDisplay:10.37,2013-02-24 02:10:00,
2013-02-23 21:15:00,47.8,47.0,29.90,SW,230,0.0,0.0,97,0.00,CLR,OVC,0.32,0.0,WeatherDisplay:10.37,2013-02-24 02:15:00,
2013-02-23 21:20:00,47.8,47.0,29.89,SW,233,0.0,1.1,97,0.00,CLR,OVC,0.32,0.0,WeatherDisplay:10.37,2013-02-24 02:20:00,
2013-02-23 21:25:00,47.9,47.1,29.90,WNW,296,0.6,2.3,97,0.00,CLR,OVC,0.32,0.0,WeatherDisplay:10.37,2013-02-24 02:25:00,
2013-02-23 21:30:00,47.9,47.1,29.89,NNW,327,2.1,3.5,97,0.00,CLR,OVC,0.32,0.0,WeatherDisplay:10.37,2013-02-24 02:30:00,
2013-02-23 21:35:00,47.8,47.0,29.90,NW,310,1.7,3.5,97,0.00,CLR,OVC,0.32,0.0,WeatherDisplay:10.37,2013-02-24 02:35:00,
2013-02-23 21:40:00,47.8,47.0,29.90,NW,316,2.2,3.5,97,0.00,CLR,OVC,0.32,0.0,WeatherDisplay:10.37,2013-02-24 02:40:00,
2013-02-23 21:45:00,47.8,47.0,29.90,WNW,289,4.1,5.8,97,0.00,CLR,OVC,0.32,0.0,WeatherDisplay:10.37,2013-02-24 02:45:00,
2013-02-23 21:50:00,47.8,47.0,29.91,NNW,340,1.3,2.3,97,0.00,CLR,OVC,0.32,0.0,WeatherDisplay:10.37,2013-02-24 02:50:00,
2013-02-23 21:55:00,47.7,46.9,29.90,WNW,300,2.5,5.8,97,0.00,CLR,OVC,0.32,0.0,WeatherDisplay:10.37,2013-02-24 02:55:00,
2013-02-23 22:00:00,47.6,47.1,29.91,SSW,192,0.1,1.1,98,0.00,CLR,OVC,0.32,0.0,WeatherDisplay:10.37,2013-02-24 03:00:00,
2013-02-23 22:05:00,47.6,47.1,29.92,West,270,2.9,6.0,98,0.00,CLR,OVC,0.32,0.0,WeatherDisplay:10.37,2013-02-24 03:05:00,
2013-02-23 22:10:00,47.4,46.6,29.88,SSE,160,3.4,8.1,97,0.00,CLR,OVC,0.32,0.0,WeatherDisplay:10.37,2013-02-24 03:10:00,
2013-02-23 22:15:00,47.3,46.5,29.88,SSE,167,0.0,0.0,97,0.00,CLR,OVC,0.32,0.0,WeatherDisplay:10.37,2013-02-24 03:15:00,
2013-02-23 22:20:00,47.2,46.4,29.87,ESE,115,1.5,3.5,97,0.00,CLR,OVC,0.32,0.0,WeatherDisplay:10.37,2013-02-24 03:20:00,
2013-02-23 22:25:00,47.2,46.4,29.88,NNW,335,0.0,0.0,97,0.00,CLR,OVC,0.32,0.0,WeatherDisplay:10.37,2013-02-24 03:25:00,
2013-02-23 22:30:00,47.2,46.4,29.89,WNW,290,1.3,2.3,97,0.00,CLR,OVC,0.32,0.0,WeatherDisplay:10.37,2013-02-24 03:30:00,
2013-02-23 22:35:00,47.2,46.4,29.89,WNW,292,1.2,2.3,97,0.00,CLR,OVC,0.32,0.0,WeatherDisplay:10.37,2013-02-24 03:35:00,
2013-02-23 22:40:00,47.2,46.7,29.88,WNW,292,0.0,1.1,98,0.00,CLR,OVC,0.32,0.0,WeatherDisplay:10.37,2013-02-24 03:40:00,
2013-02-23 22:45:00,47.2,46.7,29.88,South,183,1.5,2.3,98,0.00,CLR,OVC,0.32,0.0,WeatherDisplay:10.37,2013-02-24 03:45:00,
2013-02-23 22:50:00,47.1,46.3,29.88,South,184,0.0,0.0,97,0.00,CLR,OVC,0.32,0.0,WeatherDisplay:10.37,2013-02-24 03:50:00,
2013-02-23 22:55:00,47.1,46.3,29.89,South,184,0.0,0.0,97,0.00,CLR,OVC,0.32,0.0,WeatherDisplay:10.37,2013-02-24 03:55:00,
2013-02-23 23:00:00,47.1,46.3,29.90,West,269,0.0,2.3,97,0.00,CLR,OVC,0.32,0.0,WeatherDisplay:10.37,2013-02-24 04:00:00,
2013-02-23 23:05:00,47.2,46.7,29.90,WSW,252,0.2,1.1,98,0.00,CLR,OVC,0.32,0.0,WeatherDisplay:10.37,2013-02-24 04:05:00,
2013-02-23 23:10:00,47.1,46.6,29.89,SSE,152,0.3,3.5,98,0.00,CLR,OVC,0.32,0.0,WeatherDisplay:10.37,2013-02-24 04:10:00,
2013-02-23 23:15:00,47.1,46.6,29.89,SW,236,1.6,2.3,98,0.00,CLR,OVC,0.32,0.0,WeatherDisplay:10.37,2013-02-24 04:15:00,
2013-02-23 23:20:00,47.1,46.6,29.89,SW,236,0.3,2.0,98,0.00,CLR,OVC,0.32,0.0,WeatherDisplay:10.37,2013-02-24 04:20:00,
2013-02-23 23:25:00,47.1,46.6,29.88,SW,236,0.7,2.3,98,0.00,CLR,OVC,0.32,0.0,WeatherDisplay:10.37,2013-02-24 04:25:00,
2013-02-23 23:30:00,47.1,46.6,29.89,SW,235,0.5,2.0,98,0.00,CLR,OVC,0.32,0.0,WeatherDisplay:10.37,2013-02-24 04:30:00,
2013-02-23 23:35:00,47.1,46.6,29.90,SSW,196,1.7,3.5,98,0.00,CLR,OVC,0.32,0.0,WeatherDisplay:10.37,2013-02-24 04:35:00,
2013-02-23 23:40:00,47.1,46.6,29.90,WSW,252,0.7,1.1,98,0.00,CLR,OVC,0.32,0.0,WeatherDisplay:10.37,2013-02-24 04:40:00,
2013-02-23 23:45:00,47.1,46.6,29.89,SW,221,0.5,2.3,98,0.00,CLR,OVC,0.32,0.0,WeatherDisplay:10.37,2013-02-24 04:45:00,
2013-02-23 23:50:00,47.1,46.6,29.89,SW,217,0.1,1.0,98,0.00,CLR,OVC,0.32,0.0,WeatherDisplay:10.37,2013-02-24 04:50:00,
2013-02-23 23:55:00,47.1,46.6,29.89,SW,223,2.9,5.8,98,0.00,CLR,OVC,0.32,0.0,WeatherDisplay:10.37,2013-02-24 04:55:00,